Weather Roundup
Issued by NWS Corpus Christi, TX

Home | Current Version | Previous Version | Text Only | Print | Product List | Glossary On
Versions: 1 2 3 4 5 6 7 8 9 10 11 12 13 14 15 16 17 18 19 20 21 22 23 24 25 26 27 28 29 30 31 32 33 34 35 36 37 38 39 40 41 42 43 44 45 46 47 48 49 50
000
ASUS44 KCRP 060510
HRRCRP

SOUTH TEXAS REGIONAL WEATHER ROUNDUP
NATIONAL WEATHER SERVICE CORPUS CHRISTI TX
1200 AM CDT WED MAY 06 2015


TXZ229>244-060600-
...CORPUS CHRISTI AREA OBSERVATIONS...

CITY           SKY/WX    TMP DP  RH WIND       PRES   REMARKS
CORPUS CHRISTI CLOUDY    76  72  87 SE18G26   29.93R
NAS CORPUS CHR CLOUDY    76  73  91 SE17      29.93R
ROCKPORT       CLOUDY    77  72  84 SE21G26   29.94R
KINGSVILLE NAS CLOUDY    75  74  96 SE16      29.91S
ALICE          CLOUDY    76  72  87 SE14      29.92R
FALFURRIAS     CLOUDY    76  71  86 SE10      29.91S
$$

...VICTORIA AREA OBSERVATIONS...

CITY           SKY/WX    TMP DP  RH WIND       PRES   REMARKS
VICTORIA       LGT RAIN  76  72  87 SE17      29.96S
BEEVILLE       CLOUDY    75  74  99 SE15G21   29.93F
PLEASANTON     RAIN      73  70  89 SE12G20   29.93S
SAN ANTONIO    CLOUDY    73  70  90 SE14      29.95R
$$

...LAREDO AREA OBSERVATIONS...

CITY           SKY/WX    TMP DP  RH WIND       PRES   REMARKS
LAREDO         CLOUDY    76  70  82 SE14      29.90R
COTULLA        LGT RAIN  75  69  81 SE16      29.91S
DEL RIO        CLOUDY    72  69  90 E12       29.88R
MCALLEN        CLOUDY    78  72  81 SE15      29.90S
HEBBRONVILLE     N/A     74  70  89 SE13G18   29.91S
$$

...OTHER TEXAS OBSERVATIONS...

CITY           SKY/WX    TMP DP  RH WIND       PRES   REMARKS
BROWNSVILLE    CLOUDY    77  73  87 SE14      29.93R
HOUSTON        CLOUDY    75  67  76 SE15G24   30.02R
COL. STATION   LGT RAIN  72  68  87 SE21G36   29.95F
AUSTIN         HVY RAIN  72  72 100 VRB5G18   29.94F FOG
WACO           CLOUDY    71  68  90 S9        29.97R
FORT WORTH     CLOUDY    71  67  87 SE17      29.94R
WICHITA FALLS  MOCLDY    67  65  93 S15       29.87F
LUBBOCK        PTCLDY    60  58  92 SE14      29.88S
EL PASO        PTCLDY    71  34  25 NW9       29.93R
$$

...MARINE OBSERVATIONS...

STATION/POSITION TIME  SKY/WX   TEMP    WIND        PRES    VSBY  WAVE   SWELL
                                AIR SEA DIR/SP/G                  HT/PER HT/PER
                 (UTC)          (F)     (DEG/KT/KT) (MB)    (MI)  (FT/S) (FT/S)
PORT ARANSAS     0500            76 76  120/ 19/ 21 1014.2R
BUOY 90 E PORT A 0450            76 75  120/ 23/ 29 1014.0F         7/ 8
BUOY 45 SE BAFFI 0450            76 75  140/ 17/ 21 1013.3R         6/ 8   3/ 9
BUOY 200 E PT IS 0450            78 77  110/ 17/ 19 1015.1R         6/ 8   3/ 8
BUOY 15 E GALVES 0450            76 75  110/ 17/ 23 1016.1S         5/ 5   2/ 9
$$



USA.gov is the U.S. government's official web portal to all federal, state and local government web resources and services.